Year,Month,Day,Hour,Minute,Value (Times are PST for temperature in C)
2009,03,07,07,20,1.70
2009,03,07,07,21,1.70
2009,03,07,07,22,1.70
2009,03,07,07,23,1.80
2009,03,07,07,24,1.80
2009,03,07,07,25,1.80
2009,03,07,07,26,1.80
2009,03,07,07,27,1.80
2009,03,07,07,28,1.80
2009,03,07,07,29,1.80
2009,03,07,07,30,1.90
2009,03,07,07,31,1.90
2009,03,07,07,32,1.90
2009,03,07,07,33,2.00
2009,03,07,07,34,2.00
2009,03,07,07,35,2.00
2009,03,07,07,36,2.10
2009,03,07,07,37,2.10
2009,03,07,07,38,2.20
2009,03,07,07,39,2.20
2009,03,07,07,40,2.30
2009,03,07,07,41,2.30
2009,03,07,07,42,2.30
2009,03,07,07,43,2.40
2009,03,07,07,44,2.50
2009,03,07,07,45,2.50
2009,03,07,07,46,2.60
2009,03,07,07,47,2.70
2009,03,07,07,48,2.70
2009,03,07,07,49,2.80
2009,03,07,07,50,2.80
2009,03,07,07,51,2.90
2009,03,07,07,52,3.00
2009,03,07,07,53,3.00
2009,03,07,07,54,3.10
2009,03,07,07,55,3.10
2009,03,07,07,56,3.20
2009,03,07,07,57,3.20
2009,03,07,07,58,3.30
2009,03,07,07,59,3.30
2009,03,07,08,00,3.40
2009,03,07,08,01,3.40
2009,03,07,08,02,3.50
2009,03,07,08,03,3.60
2009,03,07,08,04,3.60
2009,03,07,08,05,3.60
2009,03,07,08,06,3.70
2009,03,07,08,07,3.70
2009,03,07,08,08,3.80
2009,03,07,08,09,3.80
2009,03,07,08,10,3.80
2009,03,07,08,11,3.90
2009,03,07,08,12,4.00
2009,03,07,08,13,4.00
2009,03,07,08,14,4.10
2009,03,07,08,15,4.10
2009,03,07,08,16,4.20
2009,03,07,08,17,4.30
2009,03,07,08,18,4.30
2009,03,07,08,19,4.40
2009,03,07,08,20,4.40
2009,03,07,08,21,4.50
2009,03,07,08,22,4.50
2009,03,07,08,23,4.50
2009,03,07,08,24,4.60
2009,03,07,08,25,4.60
2009,03,07,08,26,4.60
2009,03,07,08,27,4.70
2009,03,07,08,28,4.70
2009,03,07,08,29,4.80
2009,03,07,08,30,4.80
2009,03,07,08,31,4.80
2009,03,07,08,32,4.80
2009,03,07,08,33,4.80
2009,03,07,08,34,4.80
2009,03,07,08,35,4.80
2009,03,07,08,36,4.80
2009,03,07,08,37,4.80
2009,03,07,08,38,4.80
2009,03,07,08,39,4.90
2009,03,07,08,40,4.90
2009,03,07,08,41,4.90
2009,03,07,08,42,4.90
2009,03,07,08,43,4.90
2009,03,07,08,44,5.00
2009,03,07,08,45,5.00
2009,03,07,08,46,5.00
2009,03,07,08,47,5.10
2009,03,07,08,48,5.10
2009,03,07,08,49,5.10
2009,03,07,08,50,5.10
2009,03,07,08,51,5.10
2009,03,07,08,52,5.10
2009,03,07,08,53,5.10
2009,03,07,08,54,5.10
2009,03,07,08,55,5.10
2009,03,07,08,56,5.10
2009,03,07,08,57,5.10
2009,03,07,08,58,5.10
2009,03,07,08,59,5.10
2009,03,07,09,00,5.10
2009,03,07,09,01,5.20
2009,03,07,09,02,5.20
2009,03,07,09,03,5.20
2009,03,07,09,04,5.20
2009,03,07,09,05,5.30
2009,03,07,09,06,5.30
2009,03,07,09,07,5.30
2009,03,07,09,08,5.40
2009,03,07,09,09,5.40
2009,03,07,09,10,5.40
2009,03,07,09,11,5.50
2009,03,07,09,12,5.50
2009,03,07,09,13,5.50
2009,03,07,09,14,5.50
2009,03,07,09,15,5.50
2009,03,07,09,16,5.60
2009,03,07,09,17,5.60
2009,03,07,09,18,5.60
2009,03,07,09,19,5.60
2009,03,07,09,20,5.60
2009,03,07,09,21,5.70
2009,03,07,09,22,5.70
2009,03,07,09,23,5.70
2009,03,07,09,24,5.80
2009,03,07,09,25,5.80
2009,03,07,09,26,5.80
2009,03,07,09,27,5.90
2009,03,07,09,28,5.90
2009,03,07,09,29,6.00
2009,03,07,09,30,6.00
2009,03,07,09,31,6.00
2009,03,07,09,32,6.00
2009,03,07,09,33,6.00
2009,03,07,09,34,6.00
2009,03,07,09,35,6.00
2009,03,07,09,36,6.00
2009,03,07,09,37,6.00
2009,03,07,09,38,6.00
2009,03,07,09,39,6.00
2009,03,07,09,40,6.00
2009,03,07,09,41,6.00
2009,03,07,09,42,5.90
2009,03,07,09,43,5.90
2009,03,07,09,44,5.90
2009,03,07,09,45,5.90
2009,03,07,09,46,5.90
2009,03,07,09,47,5.90
2009,03,07,09,48,5.90
2009,03,07,09,49,5.90
2009,03,07,09,50,5.80
2009,03,07,09,51,5.80
2009,03,07,09,52,5.80
2009,03,07,09,53,5.80
2009,03,07,09,54,5.90
2009,03,07,09,55,5.90
2009,03,07,09,56,5.90
2009,03,07,09,57,5.90
2009,03,07,09,58,5.90
2009,03,07,09,59,5.90
2009,03,07,10,00,5.90
2009,03,07,10,01,6.00
2009,03,07,10,02,5.90
2009,03,07,10,03,5.90
2009,03,07,10,04,5.90
2009,03,07,10,05,5.90
2009,03,07,10,06,5.90
2009,03,07,10,07,5.90
2009,03,07,10,08,5.80
2009,03,07,10,09,5.80
2009,03,07,10,10,5.80
2009,03,07,10,11,5.80
2009,03,07,10,12,5.80
2009,03,07,10,13,5.80
2009,03,07,10,14,5.80
2009,03,07,10,15,5.80
2009,03,07,10,16,5.80
2009,03,07,10,17,5.80
2009,03,07,10,18,5.80
2009,03,07,10,19,5.80
2009,03,07,10,20,5.80
2009,03,07,10,21,5.80
2009,03,07,10,22,5.80
2009,03,07,10,23,5.80
2009,03,07,10,24,5.80
2009,03,07,10,25,5.80
2009,03,07,10,26,5.80
2009,03,07,10,27,5.80
2009,03,07,10,28,5.80
2009,03,07,10,29,5.70
2009,03,07,10,30,5.80
2009,03,07,10,31,5.80
2009,03,07,10,32,5.80
2009,03,07,10,33,5.80
2009,03,07,10,34,5.80
2009,03,07,10,35,5.70
2009,03,07,10,36,5.70
2009,03,07,10,37,5.70
2009,03,07,10,38,5.70
2009,03,07,10,39,5.70
2009,03,07,10,40,5.70
2009,03,07,10,41,5.70
2009,03,07,10,42,5.70
2009,03,07,10,43,5.70
2009,03,07,10,44,5.70
2009,03,07,10,45,5.70
2009,03,07,10,46,5.70
2009,03,07,10,47,5.70
2009,03,07,10,48,5.70
2009,03,07,10,49,5.70
2009,03,07,10,50,5.70
2009,03,07,10,51,5.60
2009,03,07,10,52,5.60
2009,03,07,10,53,5.60
2009,03,07,10,54,5.60
2009,03,07,10,55,5.60
2009,03,07,10,56,5.60
2009,03,07,10,57,5.60
2009,03,07,10,58,5.60
2009,03,07,10,59,5.60
2009,03,07,11,00,5.60
2009,03,07,11,01,5.60
2009,03,07,11,02,5.60
2009,03,07,11,03,5.60
2009,03,07,11,04,5.60
2009,03,07,11,05,5.60
2009,03,07,11,06,5.70
2009,03,07,11,07,5.70
2009,03,07,11,08,5.70
2009,03,07,11,09,5.70
2009,03,07,11,10,5.70
2009,03,07,11,11,5.70
2009,03,07,11,12,5.70
2009,03,07,11,13,5.70
2009,03,07,11,14,5.70
2009,03,07,11,15,5.80
2009,03,07,11,16,5.80
2009,03,07,11,17,5.80
2009,03,07,11,18,5.80
2009,03,07,11,19,5.80
2009,03,07,11,20,5.80
2009,03,07,11,21,5.70
2009,03,07,11,22,5.70
2009,03,07,11,23,5.70
2009,03,07,11,24,5.70
2009,03,07,11,25,5.80
2009,03,07,11,26,5.80
2009,03,07,11,27,5.80
2009,03,07,11,28,5.80
2009,03,07,11,29,5.80
2009,03,07,11,30,5.80
2009,03,07,11,31,5.80
2009,03,07,11,32,5.90
2009,03,07,11,33,5.90
2009,03,07,11,34,5.90
2009,03,07,11,35,5.90
2009,03,07,11,36,5.90
2009,03,07,11,37,5.90
2009,03,07,11,38,5.90
2009,03,07,11,39,5.90
2009,03,07,11,40,5.90
2009,03,07,11,41,5.90
2009,03,07,11,42,6.00
2009,03,07,11,43,6.00
2009,03,07,11,44,6.00
2009,03,07,11,45,6.10
2009,03,07,11,46,6.10
2009,03,07,11,47,6.10
2009,03,07,11,48,6.20
2009,03,07,11,49,6.20
2009,03,07,11,50,6.30
2009,03,07,11,51,6.30
2009,03,07,11,52,6.30
2009,03,07,11,53,6.40
2009,03,07,11,54,6.40
2009,03,07,11,55,6.30
2009,03,07,11,56,6.30
2009,03,07,11,57,6.30
2009,03,07,11,58,6.30
2009,03,07,11,59,6.30
2009,03,07,12,00,6.30
2009,03,07,12,01,6.30
2009,03,07,12,02,6.30
2009,03,07,12,03,6.30
2009,03,07,12,04,6.30
2009,03,07,12,05,6.30
2009,03,07,12,06,6.20
2009,03,07,12,07,6.20
2009,03,07,12,08,6.20
2009,03,07,12,09,6.20
2009,03,07,12,10,6.20
2009,03,07,12,11,6.20
2009,03,07,12,12,6.20
2009,03,07,12,13,6.20
2009,03,07,12,14,6.20
2009,03,07,12,15,6.20
2009,03,07,12,16,6.20
2009,03,07,12,17,6.20
2009,03,07,12,18,6.20
2009,03,07,12,19,6.20
2009,03,07,12,20,6.20
2009,03,07,12,21,6.10
2009,03,07,12,22,6.10
2009,03,07,12,23,6.10
2009,03,07,12,24,6.10
2009,03,07,12,25,6.10
2009,03,07,12,26,6.10
2009,03,07,12,27,6.20
2009,03,07,12,28,6.20
2009,03,07,12,29,6.10
2009,03,07,12,30,6.10
2009,03,07,12,31,6.10
2009,03,07,12,32,6.10
2009,03,07,12,33,6.10
2009,03,07,12,34,6.10
2009,03,07,12,35,6.10
2009,03,07,12,36,6.10
2009,03,07,12,37,6.10
2009,03,07,12,38,6.10
2009,03,07,12,39,6.10
2009,03,07,12,40,6.10
2009,03,07,12,41,6.10
2009,03,07,12,42,6.10
2009,03,07,12,43,6.10
2009,03,07,12,44,6.10
2009,03,07,12,45,6.10
2009,03,07,12,46,6.00
2009,03,07,12,47,6.00
2009,03,07,12,48,6.00
2009,03,07,12,49,6.00
2009,03,07,12,50,6.00
2009,03,07,12,51,6.10
2009,03,07,12,52,6.10
2009,03,07,12,53,6.10
2009,03,07,12,54,6.10
2009,03,07,12,55,6.10
2009,03,07,12,56,6.10
2009,03,07,12,57,6.10
2009,03,07,12,58,6.10
2009,03,07,12,59,6.20
2009,03,07,13,00,6.20
2009,03,07,13,01,6.10
2009,03,07,13,02,6.10
2009,03,07,13,03,6.00
2009,03,07,13,04,6.00
2009,03,07,13,05,5.90
2009,03,07,13,06,5.90
2009,03,07,13,07,5.80
2009,03,07,13,08,5.80
2009,03,07,13,09,5.70
2009,03,07,13,10,5.70
2009,03,07,13,11,5.60
2009,03,07,13,12,5.60
2009,03,07,13,13,5.50
2009,03,07,13,14,5.30
2009,03,07,13,15,5.20
2009,03,07,13,16,5.10
2009,03,07,13,17,5.00
2009,03,07,13,18,4.90
2009,03,07,13,19,4.80
2009,03,07,13,20,4.70
2009,03,07,13,21,4.60
2009,03,07,13,22,4.50
2009,03,07,13,23,4.50
2009,03,07,13,24,4.40
2009,03,07,13,25,4.40
2009,03,07,13,26,4.40
2009,03,07,13,27,4.30
2009,03,07,13,28,4.30
2009,03,07,13,29,4.20
2009,03,07,13,30,4.20
2009,03,07,13,31,4.20
2009,03,07,13,32,4.20
2009,03,07,13,33,4.20
2009,03,07,13,34,4.10
2009,03,07,13,35,4.10
2009,03,07,13,36,4.10
2009,03,07,13,37,4.00
2009,03,07,13,38,4.00
2009,03,07,13,39,3.90
2009,03,07,13,40,3.70
2009,03,07,13,41,3.50
2009,03,07,13,42,3.40
2009,03,07,13,43,3.20
2009,03,07,13,44,3.00
2009,03,07,13,45,2.80
2009,03,07,13,46,2.50
2009,03,07,13,47,2.30
2009,03,07,13,48,2.10
2009,03,07,13,49,2.10
2009,03,07,13,50,2.10
2009,03,07,13,51,2.10
2009,03,07,13,52,2.10
2009,03,07,13,53,2.10
2009,03,07,13,54,2.10
2009,03,07,13,55,2.10
2009,03,07,13,56,2.10
2009,03,07,13,57,2.10
2009,03,07,13,58,2.10
2009,03,07,14,48,3.40
2009,03,07,14,49,3.40
2009,03,07,14,50,3.40
2009,03,07,14,51,3.40
2009,03,07,14,52,3.50
2009,03,07,14,53,3.50
2009,03,07,14,54,3.60
2009,03,07,14,55,3.60
2009,03,07,14,56,3.70
2009,03,07,14,57,3.70
2009,03,07,14,58,3.70
2009,03,07,14,59,3.70
2009,03,07,15,00,3.70
2009,03,07,15,01,3.80
2009,03,07,15,02,3.80
2009,03,07,15,03,3.80
2009,03,07,15,04,3.80
2009,03,07,15,05,3.90
2009,03,07,15,06,3.90
2009,03,07,15,07,3.90
2009,03,07,15,08,4.00
2009,03,07,15,09,4.00
2009,03,07,15,10,4.00
2009,03,07,15,11,4.10
2009,03,07,15,12,4.10
2009,03,07,15,13,4.20
2009,03,07,15,14,4.20
2009,03,07,15,15,4.30
2009,03,07,15,16,4.30
2009,03,07,15,17,4.30
2009,03,07,15,18,4.40
2009,03,07,15,19,4.40
2009,03,07,15,20,4.50
2009,03,07,15,21,4.60
2009,03,07,15,22,4.60
2009,03,07,15,23,4.60
2009,03,07,15,24,4.60
2009,03,07,15,25,4.70
2009,03,07,15,26,4.70
2009,03,07,15,27,4.80
2009,03,07,15,28,4.80
2009,03,07,15,29,4.90
2009,03,07,15,30,4.90
2009,03,07,15,31,5.00
2009,03,07,15,32,5.10
2009,03,07,15,33,5.20
2009,03,07,15,34,5.20
2009,03,07,15,35,5.30
2009,03,07,15,36,5.40
2009,03,07,15,37,5.40
2009,03,07,15,38,5.40
2009,03,07,15,39,5.50
2009,03,07,15,40,5.50
2009,03,07,15,41,5.50
2009,03,07,15,42,5.50
2009,03,07,15,43,5.40
2009,03,07,15,44,5.40
2009,03,07,15,45,5.40
2009,03,07,15,46,5.30
2009,03,07,15,47,5.30
2009,03,07,15,48,5.20
2009,03,07,15,49,5.20
2009,03,07,15,50,5.10
2009,03,07,15,51,5.10
2009,03,07,15,52,5.00
2009,03,07,15,53,5.00
2009,03,07,15,54,4.90
2009,03,07,15,55,4.80
2009,03,07,15,56,4.80
2009,03,07,15,57,4.80
2009,03,07,15,58,4.70
2009,03,07,15,59,4.70
2009,03,07,16,00,4.70
2009,03,07,16,01,4.70
2009,03,07,16,02,4.60
2009,03,07,16,03,4.60
2009,03,07,16,04,4.60
2009,03,07,16,05,4.60
2009,03,07,16,06,4.60
2009,03,07,16,07,4.60
2009,03,07,16,08,4.60
2009,03,07,16,09,4.50
2009,03,07,16,10,4.50
2009,03,07,16,11,4.50
2009,03,07,16,12,4.50
2009,03,07,16,13,4.50
2009,03,07,16,14,4.40
2009,03,07,16,15,4.40
2009,03,07,16,16,4.40
2009,03,07,16,17,4.40
2009,03,07,16,18,4.40
2009,03,07,16,19,4.40
2009,03,07,16,20,4.30
2009,03,07,16,21,4.30
2009,03,07,16,22,4.30
2009,03,07,16,23,4.30
2009,03,07,16,24,4.30
2009,03,07,16,25,4.40
2009,03,07,16,26,4.40
2009,03,07,16,27,4.40
2009,03,07,16,28,4.40
2009,03,07,16,29,4.40
2009,03,07,16,30,4.50
2009,03,07,16,31,4.50
2009,03,07,16,32,4.60
2009,03,07,16,33,4.60
2009,03,07,16,34,4.70
2009,03,07,16,35,4.70
2009,03,07,16,36,4.80
2009,03,07,16,37,4.80
2009,03,07,16,38,4.90
2009,03,07,16,39,4.90
2009,03,07,16,40,5.00
2009,03,07,16,41,5.00
2009,03,07,16,42,5.10
2009,03,07,16,43,5.10
2009,03,07,16,44,5.10
2009,03,07,16,45,5.10
2009,03,07,16,46,5.10
2009,03,07,16,47,5.20
2009,03,07,16,48,5.20
2009,03,07,16,49,5.20
2009,03,07,16,50,5.20
2009,03,07,16,51,5.20
2009,03,07,16,52,5.30
2009,03,07,16,53,5.30
2009,03,07,16,54,5.20
2009,03,07,16,55,5.20
2009,03,07,16,56,5.20
2009,03,07,16,57,5.20
2009,03,07,16,58,5.20
2009,03,07,16,59,5.20
2009,03,07,17,00,5.20
2009,03,07,17,01,5.20
2009,03,07,17,02,5.20
2009,03,07,17,03,5.20
2009,03,07,17,04,5.20
2009,03,07,17,05,5.20
2009,03,07,17,06,5.20
2009,03,07,17,07,5.20
2009,03,07,17,08,5.20
2009,03,07,17,09,5.20
2009,03,07,17,10,5.20
2009,03,07,17,11,5.20
2009,03,07,17,12,5.20
